Current Weather Conditions: station 63103

sailwx.info

Last reported at 2014-Sep-09 06:33 UTC.
Time now 2015-Feb-01 14:45 UTC

Location: N 61°12' E 001°06'.
View on Google Maps.

See reports from other nearby stations

  
Tides and Currents Weather Stations Pressure Air Temp Water Temp Dewpoint Dewpoint Depression Visibility Wind Speed Wind Dir Waves Ship Positions
date/time (UTC)wind fromknots sea level pressurealtimeterstation pressurevisibilityair tempwater tempwave heightnotes
2015-Feb-01 13:00 340 32 4.1 4.1
2015-Feb-01 12:00 340 33 3.5 3.5
2015-Feb-01 11:00 330 29 2.8 3.8
2015-Feb-01 10:00 350 23 4.6 4.0
2015-Feb-01 09:00 350 24 4.1 4.0
2015-Feb-01 08:00 340 23 3.9 4.2
2015-Feb-01 07:00 340 27 4.0 4.0
2015-Feb-01 06:00 010 23 4.2 4.1
2015-Feb-01 05:00 360 26 4.9 4.5
2015-Feb-01 04:00 360 25 5.4 4.2
2015-Feb-01 03:00 350 27 5.5 4.0
2015-Feb-01 02:00 360 26 6.0 4.1
2015-Feb-01 01:00 360 23 7.0 4.2
2015-Feb-01 00:00 010 24 7.1 4.1
2015-Jan-31 23:00 020 25 6.8 4.0
2015-Jan-31 22:00 010 24 6.8 4.4
2015-Jan-31 21:00 010 22 6.3 3.8
2015-Jan-31 20:00 040 16 5.4 3.9
2015-Jan-31 19:00 020 15 5.5 4.1
2015-Jan-31 18:00 010 11 4.9 3.8
2015-Jan-31 17:00 030 11 5.2 4.5
2015-Jan-31 16:00 040 9 5.2 4.5
2015-Jan-31 15:00 040 10 5.4 4.8
2015-Jan-31 14:00 040 11 5.2 4.8
2015-Jan-31 13:00 040 9 5.0 4.9
2015-Jan-31 12:00 050 9 4.6 5.0
2015-Jan-31 11:00 090 11 4.0 4.9
2015-Jan-31 10:00 070 13 4.2 5.0
2015-Jan-31 09:00 060 17 4.4 5.0
2015-Jan-31 08:00 060 17 4.4 4.8
2015-Jan-31 07:00 070 19 4.5 5.0
2015-Jan-31 06:00 070 15 4.5 4.5
2015-Jan-31 05:00 070 13 4.8 5.0
2015-Jan-31 04:00 050 13 5.0 4.7
2015-Jan-31 03:00 050 13 5.0 4.5
2015-Jan-31 02:00 050 14 5.3 5.0
2015-Jan-31 01:00 040 15 5.3 4.9
2015-Jan-31 00:00 040 16 5.2 5.3
2015-Jan-30 23:00 030 17 5.4 4.7
2015-Jan-30 22:00 040 19 5.3 4.7
2015-Jan-30 21:00 040 18 5.6 5.4
2015-Jan-30 20:00 030 18 5.3 5.4
2015-Jan-30 19:00 030 19 5.1 5.4
2015-Jan-30 18:00 010 22 5.1 5.6
2015-Jan-30 17:00 020 26 5.3 5.7
2015-Jan-30 16:00 020 29 5.7 5.7
2015-Jan-30 15:00 030 20 7.1 5.7
2015-Jan-30 14:00 020 22 7.9 5.3